This is the latest recevied weather packets stored in our database for station/object KB1RMA-4. If no packets are shown the sender has not sent any weather packets the latest 10 day(s).
| Time | Temp. | Humidity | Pressure | Rain* | Wind** | Luminosity | Snow |
|---|---|---|---|---|---|---|---|
| 1787409760 | 20° C | 76% | 1019.1 hPa | 0 mm | - | 67 W/m² | - |
| 1787409456 | 20° C | 76% | 1019.2 hPa | 0 mm | - | 91 W/m² | - |
| 1787409152 | 20° C | 75% | 1019.3 hPa | 0 mm | - | 73 W/m² | - |
| 1787408847 | 20° C | 75% | 1019.3 hPa | 0 mm | - | 85 W/m² | - |
| 1787408542 | 20° C | 75% | 1019.3 hPa | 0 mm | - | 86 W/m² | - |
| 1787408237 | 20° C | 74% | 1019.1 hPa | 0 mm | - | 58 W/m² | - |
| 1787407934 | 20.56° C | 73% | 1019 hPa | 0 mm | - | 64 W/m² | - |
| 1787407628 | 20.56° C | 73% | 1018.7 hPa | 0 mm | - | 119 W/m² | - |
| 1787407324 | 20.56° C | 73% | 1018.8 hPa | 0 mm | - | 170 W/m² | - |
| 1787407020 | 21.11° C | 71% | 1018.7 hPa | 0 mm | - | 168 W/m² | - |
| 1787406715 | 21.11° C | 72% | 1018.9 hPa | 0 mm | - | 242 W/m² | - |
| 1787406410 | 20.56° C | 73% | 1018.9 hPa | 0 mm | - | 298 W/m² | - |
| 1787406106 | 20.56° C | 73% | 1018.8 hPa | 0 mm | - | 258 W/m² | - |
| 1787405803 | 20.56° C | 74% | 1019 hPa | 0 mm | - | 192 W/m² | - |
| 1787405499 | 20° C | 74% | 1019.1 hPa | 0 mm | - | 157 W/m² | - |
| 1787405199 | 20° C | 73% | 1018.8 hPa | 0 mm | - | 201 W/m² | - |
| 1787404896 | 20° C | 74% | 1018.8 hPa | 0 mm | - | 176 W/m² | - |
| 1787404285 | 20° C | 74% | 1019 hPa | 0 mm | - | 93 W/m² | - |
| 1787403980 | 20° C | 74% | 1018.8 hPa | 0 mm | - | 82 W/m² | - |
| 1787403675 | 19.44° C | 74% | 1018.9 hPa | 0 mm | - | 82 W/m² | - |
| 1787403369 | 19.44° C | 74% | 1018.8 hPa | 0 mm | - | 77 W/m² | - |
| 1787403067 | 20° C | 73% | 1019 hPa | 0 mm | - | 69 W/m² | - |
| 1787402762 | 20° C | 73% | 1019.1 hPa | 0 mm | - | 77 W/m² | - |
| 1787402461 | 20° C | 74% | 1019 hPa | 0 mm | - | 72 W/m² | - |
| 1787402156 | 19.44° C | 74% | 1019.1 hPa | 0 mm | - | 63 W/m² | - |
* Rain latest hour (hover to see other rain measurements)
** Current wind speed in m/s (hover to see current wind gust speed)